Startpagina
METAR-TAF:

METAR-TAF

Vliegvelden :

Productieplatform

P11-b, Nederland

breedte: 52-21-36N, lengte: 3-20-30E, hoogte: 24 m

Actueel weer

Dit bericht is 12 minuten geleden gemaakt, om 22:25 UTC
Wind 6 kt uit het noordnoordoosten, variërend tussen het westnoordwesten en het oostnoordoosten
Temperatuur 19°C
Vochtigheid 73%
Druk 1015 hPa
Zicht 10 km of meer
Verspreide wolken op 2900 ft

METAR: EHPG 192225Z AUTO 02006KT 300V060 9999 SCT029 19/14 Q1015

Tijdstip: 00:37 (22:37 UTC)


TAF: ontbreekt

Waarnemingen en weersverwachtingen van meer dan 4000 vliegvelden (METAR en TAF).

De beschikbare stations zijn de gele en rode punten op de kaart.

Ga met uw muis naar het station om de naam te zien.

Klik dan om waarnemingen en weersverwachtingen te zien.

kaart wijzigen: klik op de groene knoppen met een zwart kruis om in te zoomen, op de groene knop met een streepje om uit te zoomen of op de groene pijlen voor aangrenzende kaarten.


METAR-TAF: